Location: ActonStarParty
(42.4766°N, 71.4538°W)
Time: 07:08:23
(UTC-04:00)

Cosmos 1300 - Visible Passes

Search period start: 30 May 2017 00:00
Search period end: 09 June 2017 00:00
Orbit: 515 x 516 km, 82.5° (Epoch: 29 May)

Date Brightness Start Highest point End Pass type
(mag) Time Alt. Az. Time Alt. Az. Time Alt. Az.
30 May 4.4 01:03:39 10° NNE 01:06:48 26° ENE 01:06:48 26° ENE visible
30 May 4.5 02:39:36 10° NW 02:41:48 19° WNW 02:41:48 19° WNW visible
31 May 4.7 00:48:50 10° NNE 00:51:47 22° ENE 00:51:47 22° ENE visible
31 May 4.3 02:24:22 10° NW 02:26:47 23° WNW 02:26:47 23° WNW visible
01 Jun 4.9 00:34:06 10° NNE 00:36:47 18° ENE 00:36:47 18° ENE visible
01 Jun 4.1 02:09:12 10° NNW 02:11:47 27° WNW 02:11:47 27° WNW visible
02 Jun 5.1 00:19:25 10° NNE 00:21:45 15° ENE 00:21:47 15° ENE visible
02 Jun 3.9 01:54:04 10° NNW 01:56:47 32° WNW 01:56:47 32° WNW visible
03 Jun 5.2 00:04:53 10° NE 00:06:40 13° ENE 00:06:48 13° ENE visible
03 Jun 3.7 01:38:58 10° NNW 01:41:48 37° WNW 01:41:48 37° WNW visible
03 Jun 5.4 23:50:43 10° NE 23:51:35 11° ENE 23:51:50 11° ENE visible
04 Jun 3.5 01:23:54 10° NNW 01:26:50 44° NW 01:26:50 44° NW visible
05 Jun 3.4 01:08:51 10° NNW 01:11:53 51° NW 01:11:53 51° NW visible
06 Jun 3.3 00:53:49 10° N 00:56:56 56° NNW 00:56:56 56° NNW visible
07 Jun 3.2 00:38:49 10° N 00:41:59 57° NNE 00:41:59 57° NNE visible
08 Jun 3.3 00:23:50 10° N 00:27:03 53° NE 00:27:03 53° NE visible
